This is the latest recevied weather packets stored in our database for station/object OM0AGP-15. If no packets are shown the sender has not sent any weather packets the latest 10 day(s).
| Time | Temp. | Humidity | Pressure | Rain* | Wind** | Luminosity | Snow |
|---|---|---|---|---|---|---|---|
| 1787710408 | 13.89° C | 75% | 1018.8 hPa | - | - | - | - |
| 1787709508 | 13.33° C | 77% | 1018.6 hPa | - | - | - | - |
| 1787708608 | 13.33° C | 78% | 1018.6 hPa | - | - | - | - |
| 1787707708 | 13.33° C | 79% | 1018.4 hPa | - | - | - | - |
| 1787706808 | 13.33° C | 76% | 1018.5 hPa | - | - | - | - |
| 1787705908 | 13.33° C | 83% | 1018.5 hPa | - | - | - | - |
| 1787705008 | 13.33° C | 80% | 1018.4 hPa | - | - | - | - |
| 1787704108 | 13.33° C | 81% | 1018.4 hPa | - | - | - | - |
| 1787703208 | 13.33° C | 88% | 1018.5 hPa | - | - | - | - |
| 1787702308 | 13.33° C | 87% | 1018.6 hPa | - | - | - | - |
| 1787701408 | 13.33° C | 84% | 1018.5 hPa | - | - | - | - |
| 1787700508 | 13.33° C | 86% | 1018.6 hPa | - | - | - | - |
| 1787699608 | 13.33° C | 89% | 1018.7 hPa | - | - | - | - |
| 1787698708 | 13.33° C | 89% | 1018.8 hPa | - | - | - | - |
| 1787697808 | 13.33° C | 81% | 1018.8 hPa | - | - | - | - |
| 1787696907 | 13.33° C | 81% | 1019 hPa | - | - | - | - |
| 1787696007 | 13.89° C | 83% | 1019.1 hPa | - | - | - | - |
| 1787695107 | 13.33° C | 85% | 1019 hPa | - | - | - | - |
| 1787694207 | 13.33° C | 86% | 1019.1 hPa | - | - | - | - |
| 1787693307 | 13.33° C | 87% | 1019 hPa | - | - | - | - |
| 1787692407 | 13.33° C | 89% | 1019.1 hPa | - | - | - | - |
| 1787691507 | 13.33° C | 90% | 1019 hPa | - | - | - | - |
| 1787690607 | 13.33° C | 89% | 1019 hPa | - | - | - | - |
| 1787689707 | 13.33° C | 88% | 1018.8 hPa | - | - | - | - |
| 1787688807 | 13.33° C | 91% | 1018.7 hPa | - | - | - | - |
* Rain since midnight (hover to see other rain measurements)
** Current wind speed in m/s (hover to see current wind gust speed)